Weather in Miracema

Brazil     21°24′50″S   42°11′45″W
temp.,
°C
wind,
m/s
gust,
m/s
humid.,
%
clouds,
%
prec.,
mm/h
press.,
hPa
HPBL,
m
23 april, fri
fri2300:00+17sw11930 0.0 101511
03:00+16wsw11960 0.0 101412
06:00+15w11960 0.0 101612
09:00+21w23749 0.0 1017594
12:00+26w24550 0.0 10141151
15:00+27wsw34500 0.0 10121550
18:00+22e11690 0.0 101211
21:00+19s01790 0.0 101511
24 april, sat
sat2400:00+17se01890 0.0 101511
03:00+16wsw11940 0.0 101411
06:00+15w11950 0.0 101511
09:00+21w22710 0.0 1017483
12:00+26wsw22533 0.0 10141025
15:00+27w13505 0.0 10121441
18:00+22e22680 0.0 101212
21:00+19ene22801 0.0 101418
25 april, sun
sun2500:00+18ese11950 0.0 101411
03:00+17ssw119850 0.0 101411
06:00+18sw009598 0.0 101568
09:00+20sw1189100 0.1 1016242
12:00+26w126775 0.0 1014958
15:00+26wsw236549 0.0 10121076
18:00+21ene228199 0.0 101211
21:00+19ese119013 0.0 101311
26 april, mon
mon2600:00+18e119492 0.0 101411
03:00+18sse119775 0.0 101311
06:00+17wsw119849 0.0 101411
09:00+22wnw118269 0.0 1015440
12:00+28wnw126323 0.0 1013987
15:00+29w12573 0.0 10101054
18:00+24e227582 0.0 101111
21:00+21s008989 0.9 101311
27 april, tue
tue2700:00+20ssw0193100 0.4 101311
03:00+19sw119617 1.4 101211
06:00+19wnw1196100 0.3 101411
09:00+24sw118088 0.3 1015414
12:00+25ssw2271100 0.0 1013474
15:00+24w227892 0.4 1012250
18:00+20wnw119458 2.7 101313
21:00+20wsw009714 6.3 101511